Home > Weather > Berlin > Past weeks

Flag for Germany Weather for the Past 2 Weeks in Berlin, Berlin, Germany

Now
45 °F

Partly sunny.


Feels Like: 40 °F
Forecast: 41 / 49 °F
Wind: 8 mph from South

Location: Berlin-Tegel

Current Time: Feb 6, 2016 at 8:58:02 AM

Latest Report: Feb 6, 2016 at 8:20 AM


Visibility: N/A

Pressure: 30.04 "Hg

Humidity: 87%

Dew point: 41 °F

Location of BerlinLocation

Historic Weather in Berlin — Graph

°F

Berlin Temperature Yesterday

Maximum temperature yesterday: 43 °F (at 2:20 PM)
Minimum temperature yesterday: 30 °F (at 5:20 AM)
Average temperature yesterday: 38 °F

High & Low Weather Summary for the Past Weeks

 TemperatureHumidityPressure
High54 °F (Jan 27, 12:20 PM)100% (Jan 23, 10:20 AM)30.51 "Hg (Jan 23, 10:20 AM)
Low16 °F (Jan 22, 8:20 AM)44% (Feb 2, 1:20 PM)29.56 "Hg (Jan 30, 6:50 PM)
Average42 °F80%30.04 "Hg
* Reported Jan 22 7:20 AM — Feb 6 7:20 AM, Berlin, Weather by CustomWeather, © 2016

Note: Actual official high and low records may vary slightly from our data, if they occured in-between our weather recording intervals... More about our weather records

Advertising

Berlin Weather History for the Previous 24 Hours

 ConditionsComfort  
Time TempWeatherWind HumidityBarometerVisibility
7:20 AM
Sat, Feb 6
43 °FPassing clouds.9 mph93%30.04 "HgN/A
6:50 AM43 °FPassing clouds.8 mph93%30.04 "HgN/A
6:20 AM43 °FPassing clouds.7 mph93%30.07 "HgN/A
5:50 AM43 °FPartly cloudy.8 mph93%30.07 "HgN/A
5:20 AM43 °FPassing clouds.7 mph93%30.07 "Hg6 mi
4:50 AM43 °FPassing clouds.7 mph93%30.07 "Hg4 mi
4:20 AM43 °FPartly cloudy.7 mph93%30.07 "Hg4 mi
3:50 AM43 °FPassing clouds.6 mph93%30.07 "Hg4 mi
3:20 AM43 °FPartly cloudy.6 mph93%30.09 "Hg5 mi
2:50 AM43 °FPartly cloudy.7 mph93%30.09 "Hg5 mi
2:20 AM43 °FLight rain. Partly cloudy.5 mph93%30.09 "Hg5 mi
1:20 AM43 °FLight rain. Partly cloudy.5 mph93%30.09 "Hg6 mi
12:50 AM43 °FLight rain. Passing clouds.6 mph93%30.12 "HgN/A
12:20 AM43 °FLight rain. Passing clouds.5 mph93%30.12 "HgN/A
11:50 PM
Fri, Feb 5
43 °FPartly cloudy.8 mph93%30.12 "HgN/A
11:20 PM43 °FLight rain. Passing clouds.8 mph93%30.12 "HgN/A
10:50 PM43 °FPartly cloudy.6 mph87%30.12 "HgN/A
10:20 PM43 °FPassing clouds.7 mph87%30.12 "HgN/A
9:50 PM43 °FPartly cloudy.8 mph87%30.12 "HgN/A
9:20 PM43 °FDrizzle. Mostly cloudy.9 mph87%30.12 "HgN/A
8:50 PM41 °FPassing clouds.8 mph93%30.12 "HgN/A
8:20 PM41 °FDrizzle. Mostly cloudy.9 mph93%30.12 "Hg6 mi
7:50 PM41 °FDrizzle. Low clouds.9 mph93%30.12 "Hg4 mi
7:20 PM41 °FDrizzle. Low clouds.9 mph93%30.12 "Hg4 mi
6:50 PM39 °FPassing clouds.8 mph100%30.12 "Hg4 mi
6:20 PM39 °FPassing clouds.8 mph93%30.12 "Hg2 mi
5:50 PM39 °FPartly cloudy.10 mph93%30.12 "Hg3 mi
5:20 PM41 °FPassing clouds.10 mph81%30.12 "Hg4 mi
4:50 PM41 °FLight rain. Broken clouds.9 mph81%30.15 "HgN/A
4:20 PM41 °FLight rain. Partly sunny.13 mph81%30.15 "HgN/A
3:50 PM41 °FLight rain. Broken clouds.12 mph81%30.15 "HgN/A
3:20 PM41 °FDrizzle. Broken clouds.13 mph76%30.18 "HgN/A
2:50 PM43 °FPartly sunny.10 mph71%30.18 "HgN/A
2:20 PM43 °FPartly sunny.12 mph71%30.18 "HgN/A
1:50 PM41 °FBroken clouds.13 mph76%30.18 "HgN/A
1:20 PM41 °FPartly sunny.12 mph81%30.21 "HgN/A
12:50 PM41 °FBroken clouds.12 mph81%30.21 "HgN/A
12:20 PM41 °FBroken clouds.9 mph87%30.21 "HgN/A
11:50 AM39 °FPartly sunny.10 mph87%30.24 "HgN/A
11:20 AM39 °FPartly sunny.10 mph87%30.24 "HgN/A
10:50 AM37 °FPartly sunny.13 mph93%30.24 "HgN/A
10:20 AM37 °FBroken clouds.13 mph87%30.24 "HgN/A
9:50 AM37 °FBroken clouds.12 mph87%30.24 "HgN/A
9:20 AM36 °FBroken clouds.8 mph93%30.24 "HgN/A
8:50 AM36 °FPartly sunny.9 mph87%30.24 "HgN/A
8:20 AM34 °FBroken clouds.6 mph93%30.24 "HgN/A
Weather by CustomWeather, © 2016

See weather overviewHow to use our weather pages